Location: Blue Mountain Vista Observatory
(40.6992°N, 75.9422°W)
Time: 03:27:40
(UTC-04:00)

IDEFIX/ARIANE 42P - Visible Passes

Search period start: 20 September 2017 00:00
Search period end: 30 September 2017 00:00
Orbit: 786 x 802 km, 98.2° (Epoch: 19 September)

Date Brightness Start Highest point End Pass type
(mag) Time Alt. Az. Time Alt. Az. Time Alt. Az.
20 Sep 5.5 05:27:01 10° NE 05:30:28 18° E 05:33:55 10° SE visible
22 Sep 4.0 06:08:43 10° NNE 06:13:46 44° E 06:18:45 10° S visible
23 Sep 5.1 05:41:01 10° NE 05:45:16 24° E 05:49:28 10° SSE visible
24 Sep 5.7 05:14:16 10° ENE 05:16:38 13° E 05:19:00 10° ESE visible
25 Sep 3.3 06:23:13 10° NNE 06:28:28 61° E 06:33:38 10° S visible
25 Sep 6.4 19:25:19 10° WSW 19:26:46 11° W 19:28:15 10° WNW visible
26 Sep 4.5 05:55:16 10° NNE 06:00:01 33° E 06:04:43 10° SSE visible
27 Sep 5.5 05:27:52 10° NE 05:31:27 18° E 05:35:01 10° SE visible
29 Sep 3.9 06:09:40 10° NNE 06:14:44 46° E 06:19:45 10° S visible
